Franklin, PA

4:12 PM EST on December 06, 2019 (GMT -0500)
Venango Regional

Weather History for KFKL - October, 2019

Change the Weather History Date:

Sunday, October 20, 2019

  Actual Average Record
Temperature  
Mean Temperature 54 °F -  
Max Temperature 66 °F 56 °F 81 °F (1963)
Min Temperature 43 °F 36 °F 22 °F (1934)
Degree Days  
Heating Degree Days 10    
Growing Degree Days 4 (Base 50)    
Moisture  
Dew Point 44 °F    
Average Humidity 75    
Maximum Humidity 96    
Minimum Humidity 47    
Precipitation  
Precipitation 0.00 in - - ()
Sea Level Pressure  
Sea Level Pressure 29.94 in    
Wind  
Wind Speed 4 mph (SSE)    
Max Wind Speed 8 mph    
Max Gust Speed -    
Visibility 10 miles    
Events      
Averages and records for this station are not official NWS values.
T = Trace of Precipitation, MM = Missing Value Source: NWS Daily Summary

Daily Weather History Graph

Daily Weather History Graph

Search for Another Location

Airport or City:

Astronomy

Oct. 20, 2019 Rise Set
Actual Time 7:36 AM EDT 6:31 PM EDT
Civil Twilight 7:08 AM EDT 6:59 PM EDT
Nautical Twilight 6:36 AM EDT 7:31 PM EDT
Astronomical Twilight 6:04 AM EDT 8:03 PM EDT
Moon 11:35 PM EDT (10/20) 2:05 PM EDT (10/20)
Length of Visible Light 11h 50m
Length of Day
10h 54m
Waning Gibbous, 59% of the Moon is Illuminated
Oct 20
Waning Gibbous
Oct 21
Last Quarter
Oct 27
New
Nov 4
First Quarter
Nov 12
Full

Hourly Weather History & Observations

Time (EDT) Temp. Windchill Dew Point Humidity Pressure Visibility Wind Dir Wind Speed Gust Speed Precip Events Conditions
12:56 AM 45.0 °F 42.6 °F 39.9 °F 82% 29.92 in 10.0 mi ESE 4.6 mph - N/A   Clear
1:56 AM 44.1 °F 40.1 °F 39.9 °F 85% 29.91 in 10.0 mi ESE 6.9 mph - N/A   Clear
2:56 AM 45.0 °F 42.6 °F 41.0 °F 86% 29.90 in 10.0 mi ESE 4.6 mph - N/A   Clear
3:56 AM 44.1 °F 42.5 °F 39.9 °F 85% 29.90 in 10.0 mi ESE 3.5 mph - N/A   Clear
4:56 AM 43.0 °F - 41.0 °F 93% 29.89 in 10.0 mi Calm Calm - N/A   Clear
5:56 AM 43.0 °F 40.3 °F 41.0 °F 93% 29.91 in 10.0 mi ESE 4.6 mph - N/A   Clear
6:56 AM 44.1 °F - 41.0 °F 89% 29.90 in 10.0 mi Calm Calm - N/A   Clear
7:56 AM 43.0 °F - 41.0 °F 93% 29.92 in 10.0 mi Calm Calm - N/A   Clear
8:56 AM 45.0 °F 42.6 °F 42.1 °F 90% 29.94 in 10.0 mi ESE 4.6 mph - N/A   Partly Cloudy
9:56 AM 54.0 °F - 46.0 °F 75% 29.94 in 10.0 mi Variable 5.8 mph - N/A   Clear
10:56 AM 57.9 °F - 46.0 °F 65% 29.94 in 10.0 mi South 8.1 mph - N/A   Clear
11:56 AM 57.0 °F - 46.0 °F 67% 29.94 in 10.0 mi South 5.8 mph - N/A   Clear
12:56 PM 61.0 °F - 48.0 °F 62% 29.94 in 10.0 mi South 4.6 mph - N/A   Clear
1:56 PM 64.0 °F - 48.0 °F 56% 29.93 in 10.0 mi SSE 5.8 mph - N/A   Clear
2:56 PM 64.9 °F - 48.0 °F 54% 29.92 in 10.0 mi South 4.6 mph - N/A   Clear
3:56 PM 66.0 °F - 46.0 °F 48% 29.93 in 10.0 mi SSW 4.6 mph - N/A   Clear
4:56 PM 66.0 °F - 45.0 °F 47% 29.94 in 10.0 mi South 3.5 mph - N/A   Clear
5:56 PM 63.0 °F - 46.0 °F 54% 29.95 in 10.0 mi South 4.6 mph - N/A   Clear
6:56 PM 57.9 °F - 46.0 °F 65% 29.96 in 10.0 mi SE 4.6 mph - N/A   Clear
7:56 PM 57.0 °F - 45.0 °F 64% 29.97 in 10.0 mi SE 4.6 mph - N/A   Clear
8:56 PM 53.1 °F - 45.0 °F 74% 30.00 in 10.0 mi Calm Calm - N/A   Clear
9:56 PM 51.1 °F - 45.0 °F 80% 30.00 in 10.0 mi Calm Calm - N/A   Clear
10:56 PM 50.0 °F - 46.0 °F 86% 30.02 in 10.0 mi Calm Calm - N/A   Clear
11:56 PM 46.0 °F - 45.0 °F 96% 30.03 in 10.0 mi Calm Calm - N/A   Clear